Time,TemperatureF,DewpointF,PressureIn,WindDirection,WindDirectionDegrees,WindSpeedMPH,WindSpeedGustMPH,Humidity,HourlyPrecipIn,Conditions,Clouds,dailyrainin,SoftwareType,DateUTC
2013-03-28 00:12:00,31.8,26.0,29.95,NW,315,0.0,1.0,78,0.00,,,0.00,weatherlink.com 1.10,2013-03-28 04:12:00,
2013-03-28 00:27:00,31.9,26.0,29.95,NW,315,0.0,1.0,79,0.00,,,0.00,weatherlink.com 1.10,2013-03-28 04:27:00,
2013-03-28 00:42:00,32.3,26.0,29.94,NW,322,0.0,0.0,79,0.00,,,0.00,weatherlink.com 1.10,2013-03-28 04:42:00,
2013-03-28 00:58:00,34.3,27.0,29.94,ESE,122,0.0,1.0,76,0.00,,,0.00,weatherlink.com 1.10,2013-03-28 04:58:00,
2013-03-28 01:13:00,35.9,28.0,29.94,WNW,288,0.0,1.0,72,0.00,,,0.00,weatherlink.com 1.10,2013-03-28 05:13:00,
2013-03-28 01:28:00,36.0,28.0,29.94,WNW,288,0.0,0.0,72,0.00,,,0.00,weatherlink.com 1.10,2013-03-28 05:28:00,
2013-03-28 01:43:00,36.2,28.0,29.95,WNW,288,0.0,0.0,72,0.00,,,0.00,weatherlink.com 1.10,2013-03-28 05:43:00,
2013-03-28 01:58:00,36.3,28.0,29.95,WNW,288,0.0,0.0,72,0.00,,,0.00,weatherlink.com 1.10,2013-03-28 05:58:00,
2013-03-28 02:13:00,36.1,29.0,29.95,WNW,288,0.0,0.0,74,0.00,,,0.00,weatherlink.com 1.10,2013-03-28 06:13:00,
2013-03-28 02:28:00,35.4,29.0,29.94,WNW,288,0.0,0.0,76,0.00,,,0.00,weatherlink.com 1.10,2013-03-28 06:28:00,
2013-03-28 02:43:00,34.9,28.0,29.94,WNW,288,0.0,0.0,77,0.00,,,0.00,weatherlink.com 1.10,2013-03-28 06:43:00,
2013-03-28 02:58:00,34.9,28.0,29.94,WNW,288,0.0,0.0,77,0.00,,,0.00,weatherlink.com 1.10,2013-03-28 06:58:00,
2013-03-28 03:13:00,35.9,29.0,29.94,WSW,242,0.0,1.0,75,0.00,,,0.00,weatherlink.com 1.10,2013-03-28 07:13:00,
2013-03-28 03:28:00,35.6,28.0,29.94,WSW,243,0.0,0.0,74,0.00,,,0.00,weatherlink.com 1.10,2013-03-28 07:28:00,
2013-03-28 03:43:00,35.0,28.0,29.94,WSW,243,0.0,0.0,76,0.00,,,0.00,weatherlink.com 1.10,2013-03-28 07:43:00,
2013-03-28 03:58:00,35.1,28.0,29.94,WSW,243,0.0,0.0,76,0.00,,,0.00,weatherlink.com 1.10,2013-03-28 07:58:00,
2013-03-28 04:13:00,35.3,29.0,29.94,WSW,243,0.0,0.0,77,0.00,,,0.00,weatherlink.com 1.10,2013-03-28 08:13:00,
2013-03-28 04:28:00,35.7,29.0,29.94,WSW,242,0.0,0.0,75,0.00,,,0.00,weatherlink.com 1.10,2013-03-28 08:28:00,
2013-03-28 04:43:00,35.5,28.0,29.94,WSW,242,0.0,0.0,75,0.00,,,0.00,weatherlink.com 1.10,2013-03-28 08:43:00,
2013-03-28 04:58:00,34.7,28.0,29.94,WSW,243,0.0,1.0,77,0.00,,,0.00,weatherlink.com 1.10,2013-03-28 08:58:00,
2013-03-28 05:13:00,34.3,28.0,29.94,WSW,243,0.0,0.0,78,0.00,,,0.00,weatherlink.com 1.10,2013-03-28 09:13:00,
2013-03-28 05:28:00,34.2,28.0,29.95,WSW,243,0.0,0.0,79,0.00,,,0.00,weatherlink.com 1.10,2013-03-28 09:28:00,
2013-03-28 05:43:00,34.5,28.0,29.95,WSW,242,0.0,0.0,78,0.00,,,0.00,weatherlink.com 1.10,2013-03-28 09:43:00,
2013-03-28 05:58:00,34.0,28.0,29.95,WSW,243,0.0,0.0,79,0.00,,,0.00,weatherlink.com 1.10,2013-03-28 09:58:00,
2013-03-28 06:13:00,33.2,28.0,29.95,WSW,243,0.0,0.0,80,0.00,,,0.00,weatherlink.com 1.10,2013-03-28 10:13:00,
2013-03-28 06:28:00,32.5,28.0,29.96,WSW,243,0.0,0.0,82,0.00,,,0.00,weatherlink.com 1.10,2013-03-28 10:28:00,
2013-03-28 06:43:00,31.7,27.0,29.96,WSW,243,0.0,0.0,83,0.00,,,0.00,weatherlink.com 1.10,2013-03-28 10:43:00,
2013-03-28 06:58:00,30.9,27.0,29.97,WSW,243,0.0,0.0,85,0.00,,,0.00,weatherlink.com 1.10,2013-03-28 10:58:00,
2013-03-28 07:13:00,30.6,27.0,29.97,WSW,242,0.0,0.0,86,0.00,,,0.00,weatherlink.com 1.10,2013-03-28 11:13:00,
2013-03-28 07:28:00,30.7,27.0,29.97,WSW,243,0.0,0.0,87,0.00,,,0.00,weatherlink.com 1.10,2013-03-28 11:28:00,
2013-03-28 07:43:00,31.7,28.0,29.98,WSW,243,0.0,0.0,87,0.00,,,0.00,weatherlink.com 1.10,2013-03-28 11:43:00,
2013-03-28 07:58:00,33.1,29.0,29.98,WSW,243,0.0,0.0,86,0.00,,,0.00,weatherlink.com 1.10,2013-03-28 11:58:00,
2013-03-28 08:13:00,34.9,30.0,29.99,WSW,242,0.0,0.0,83,0.00,,,0.00,weatherlink.com 1.10,2013-03-28 12:13:00,
2013-03-28 08:28:00,36.7,31.0,29.99,WSW,243,0.0,0.0,79,0.00,,,0.00,weatherlink.com 1.10,2013-03-28 12:28:00,
2013-03-28 08:43:00,38.3,31.0,29.99,WSW,242,0.0,0.0,74,0.00,,,0.00,weatherlink.com 1.10,2013-03-28 12:43:00,
2013-03-28 08:58:00,40.0,31.0,30.00,SE,129,0.0,0.0,71,0.00,,,0.00,weatherlink.com 1.10,2013-03-28 12:58:00,
2013-03-28 09:14:00,41.3,31.0,30.00,West,270,0.0,1.0,68,0.00,,,0.00,weatherlink.com 1.10,2013-03-28 13:14:00,
2013-03-28 09:29:00,42.5,32.0,30.00,ENE,76,1.0,2.0,66,0.00,,,0.00,weatherlink.com 1.10,2013-03-28 13:29:00,
2013-03-28 09:44:00,42.7,32.0,30.00,ENE,75,0.0,2.0,67,0.00,,,0.00,weatherlink.com 1.10,2013-03-28 13:44:00,
2013-03-28 09:59:00,42.7,33.0,30.01,ENE,74,0.0,1.0,69,0.00,,,0.00,weatherlink.com 1.10,2013-03-28 13:59:00,
2013-03-28 10:14:00,43.2,34.0,30.01,East,83,0.0,2.0,69,0.00,,,0.00,weatherlink.com 1.10,2013-03-28 14:14:00,
2013-03-28 10:29:00,44.0,34.0,30.01,ENE,71,1.0,2.0,69,0.00,,,0.00,weatherlink.com 1.10,2013-03-28 14:29:00,
2013-03-28 10:44:00,44.5,34.0,30.02,West,273,0.0,2.0,68,0.00,,,0.00,weatherlink.com 1.10,2013-03-28 14:44:00,
2013-03-28 10:59:00,44.9,34.0,30.02,ENE,74,0.0,1.0,67,0.00,,,0.00,weatherlink.com 1.10,2013-03-28 14:59:00,
2013-03-28 11:14:00,45.0,33.0,30.02,ENE,67,0.0,1.0,63,0.00,,,0.00,weatherlink.com 1.10,2013-03-28 15:14:00,
2013-03-28 11:29:00,44.8,34.0,30.02,South,187,0.0,3.0,66,0.00,,,0.00,weatherlink.com 1.10,2013-03-28 15:29:00,
2013-03-28 11:44:00,45.2,34.0,30.02,East,101,0.0,1.0,66,0.00,,,0.00,weatherlink.com 1.10,2013-03-28 15:44:00,
2013-03-28 11:59:00,45.0,36.0,30.02,ENE,75,0.0,2.0,70,0.00,,,0.00,weatherlink.com 1.10,2013-03-28 15:59:00,
2013-03-28 12:14:00,45.0,35.0,30.02,SSE,162,0.0,3.0,67,0.00,,,0.00,weatherlink.com 1.10,2013-03-28 16:14:00,
2013-03-28 12:29:00,44.9,34.0,30.02,East,91,0.0,5.0,66,0.00,,,0.00,weatherlink.com 1.10,2013-03-28 16:29:00,
2013-03-28 12:44:00,44.6,34.0,30.02,South,183,0.0,3.0,67,0.00,,,0.00,weatherlink.com 1.10,2013-03-28 16:44:00,
2013-03-28 12:59:00,45.3,35.0,30.02,SSE,154,0.0,1.0,67,0.00,,,0.00,weatherlink.com 1.10,2013-03-28 16:59:00,
2013-03-28 13:14:00,45.6,34.0,30.02,ENE,78,0.0,1.0,64,0.00,,,0.00,weatherlink.com 1.10,2013-03-28 17:14:00,
2013-03-28 13:29:00,45.8,33.0,30.01,NE,56,0.0,3.0,62,0.00,,,0.00,weatherlink.com 1.10,2013-03-28 17:29:00,
2013-03-28 13:44:00,46.4,33.0,30.01,ESE,112,0.0,1.0,59,0.00,,,0.00,weatherlink.com 1.10,2013-03-28 17:44:00,
2013-03-28 13:59:00,47.3,33.0,30.01,WNW,295,0.0,4.0,57,0.00,,,0.00,weatherlink.com 1.10,2013-03-28 17:59:00,
2013-03-28 14:14:00,47.2,32.0,30.01,East,79,0.0,2.0,57,0.00,,,0.00,weatherlink.com 1.10,2013-03-28 18:14:00,
2013-03-28 14:29:00,47.4,33.0,30.01,South,186,0.0,4.0,57,0.00,,,0.00,weatherlink.com 1.10,2013-03-28 18:29:00,
2013-03-28 14:44:00,47.3,32.0,30.00,SSE,148,0.0,3.0,55,0.00,,,0.00,weatherlink.com 1.10,2013-03-28 18:44:00,
2013-03-28 14:59:00,47.1,32.0,30.00,WSW,249,0.0,5.0,56,0.00,,,0.00,weatherlink.com 1.10,2013-03-28 18:59:00,
2013-03-28 15:14:00,46.9,32.0,30.00,ENE,63,0.0,3.0,56,0.00,,,0.00,weatherlink.com 1.10,2013-03-28 19:14:00,
2013-03-28 15:29:00,47.5,32.0,30.00,East,86,1.0,3.0,55,0.00,,,0.00,weatherlink.com 1.10,2013-03-28 19:29:00,
2013-03-28 15:44:00,48.2,32.0,30.00,ENE,72,0.0,3.0,54,0.00,,,0.00,weatherlink.com 1.10,2013-03-28 19:44:00,
2013-03-28 15:59:00,48.1,32.0,30.00,East,91,0.0,3.0,54,0.00,,,0.00,weatherlink.com 1.10,2013-03-28 19:59:00,
2013-03-28 16:14:00,47.8,32.0,30.00,ESE,109,2.0,3.0,55,0.00,,,0.00,weatherlink.com 1.10,2013-03-28 20:14:00,
2013-03-28 16:29:00,47.5,32.0,30.01,East,94,0.0,5.0,56,0.00,,,0.00,weatherlink.com 1.10,2013-03-28 20:29:00,
2013-03-28 16:59:00,47.7,32.0,30.01,ENE,74,1.0,4.0,56,0.00,,,0.00,weatherlink.com 1.10,2013-03-28 20:59:00,
2013-03-28 17:14:00,47.4,33.0,30.01,East,98,1.0,3.0,57,0.00,,,0.00,weatherlink.com 1.10,2013-03-28 21:14:00,
2013-03-28 17:29:00,47.4,33.0,30.02,SSE,151,3.0,3.0,57,0.00,,,0.00,weatherlink.com 1.10,2013-03-28 21:29:00,
2013-03-28 17:44:00,47.1,33.0,30.02,SSE,162,0.0,2.0,58,0.00,,,0.00,weatherlink.com 1.10,2013-03-28 21:44:00,
2013-03-28 17:59:00,47.0,33.0,30.02,WSW,249,0.0,3.0,58,0.00,,,0.00,weatherlink.com 1.10,2013-03-28 21:59:00,
2013-03-28 18:14:00,47.1,33.0,30.02,ESE,112,0.0,1.0,58,0.00,,,0.00,weatherlink.com 1.10,2013-03-28 22:14:00,
2013-03-28 18:29:00,46.8,33.0,30.03,South,183,0.0,1.0,59,0.00,,,0.00,weatherlink.com 1.10,2013-03-28 22:29:00,
2013-03-28 18:45:00,46.8,33.0,30.03,SW,221,0.0,3.0,58,0.00,,,0.00,weatherlink.com 1.10,2013-03-28 22:45:00,
2013-03-28 19:00:00,46.5,33.0,30.04,ESE,105,0.0,1.0,59,0.00,,,0.00,weatherlink.com 1.10,2013-03-28 23:00:00,
2013-03-28 19:15:00,46.0,33.0,30.04,ENE,57,0.0,0.0,60,0.00,,,0.00,weatherlink.com 1.10,2013-03-28 23:15:00,
2013-03-28 19:30:00,45.3,33.0,30.05,ENE,57,0.0,0.0,63,0.00,,,0.00,weatherlink.com 1.10,2013-03-28 23:30:00,
2013-03-28 19:45:00,44.8,33.0,30.05,WNW,287,0.0,1.0,63,0.00,,,0.00,weatherlink.com 1.10,2013-03-28 23:45:00,
2013-03-28 20:15:00,44.4,33.0,30.06,West,272,0.0,1.0,64,0.00,,,0.00,weatherlink.com 1.10,2013-03-29 00:15:00,
2013-03-28 20:30:00,44.2,33.0,30.06,South,177,0.0,1.0,64,0.00,,,0.00,weatherlink.com 1.10,2013-03-29 00:30:00,
2013-03-28 20:45:00,43.9,33.0,30.07,South,177,0.0,0.0,65,0.00,,,0.00,weatherlink.com 1.10,2013-03-29 00:45:00,
2013-03-28 21:00:00,43.9,32.0,30.07,ESE,114,0.0,1.0,64,0.00,,,0.00,weatherlink.com 1.10,2013-03-29 01:00:00,
2013-03-28 21:15:00,44.1,33.0,30.07,ESE,114,0.0,0.0,64,0.00,,,0.00,weatherlink.com 1.10,2013-03-29 01:15:00,
2013-03-28 21:30:00,44.1,33.0,30.08,SSW,200,0.0,1.0,64,0.00,,,0.00,weatherlink.com 1.10,2013-03-29 01:30:00,
2013-03-28 21:45:00,44.2,32.0,30.08,SE,139,0.0,1.0,62,0.00,,,0.00,weatherlink.com 1.10,2013-03-29 01:45:00,
2013-03-28 22:00:00,44.2,32.0,30.08,ESE,110,0.0,1.0,62,0.00,,,0.00,weatherlink.com 1.10,2013-03-29 02:00:00,
2013-03-28 22:15:00,44.7,32.0,30.09,West,265,0.0,2.0,61,0.00,,,0.00,weatherlink.com 1.10,2013-03-29 02:15:00,
2013-03-28 22:30:00,44.7,31.0,30.09,ENE,78,0.0,1.0,60,0.00,,,0.00,weatherlink.com 1.10,2013-03-29 02:30:00,
2013-03-28 22:45:00,44.8,31.0,30.09,ESE,120,2.0,4.0,60,0.00,,,0.00,weatherlink.com 1.10,2013-03-29 02:45:00,
2013-03-28 23:00:00,44.8,31.0,30.09,East,86,1.0,2.0,60,0.00,,,0.00,weatherlink.com 1.10,2013-03-29 03:00:00,
2013-03-28 23:15:00,44.7,31.0,30.09,East,84,0.0,4.0,59,0.00,,,0.00,weatherlink.com 1.10,2013-03-29 03:15:00,
2013-03-28 23:30:00,45.0,31.0,30.09,WNW,300,2.0,5.0,58,0.00,,,0.00,weatherlink.com 1.10,2013-03-29 03:30:00,
2013-03-28 23:45:00,44.9,30.0,30.09,SW,226,0.0,3.0,57,0.00,,,0.00,weatherlink.com 1.10,2013-03-29 03:45:00,